Hourly Data Report for July 27, 2016

OTTAWA INTL A
ONTARIO

45°19'00.000" N
75°40'00.000" W
114.90 m
6106001
71628
YOW

Download Data

Hourly Data (July 2016)
Hourly Data Report for July 27, 2016
TIME
LST
Temp Definition
°C
Dew Point Definition
°C
Rel Hum Definition
%
Precip. Amount Definition
mm

Wind Dir Definition
10's deg

Wind Spd Definition
km/h
Visibility Definition
km
Stn Press Definition
kPa
Hmdx Definition


Wind Chill Definition


Weather Definition


00:00 18.8 16.4 86   20 8 24.1 99.89     LegendNANA
01:00 19.0 16.3 84   22 12 24.1 99.89     Clear
02:00 18.3 15.2 82   24 8 24.1 99.89     LegendNANA
03:00 17.2 15.1 87   25 4 24.1 99.88     LegendNANA
04:00 16.6 15.0 90   22 9 24.1 99.90     Mainly Clear
05:00 16.4 15.0 91   20 8 24.1 99.88     LegendNANA
06:00 17.5 15.5 88   20 10 24.1 99.92     LegendNANA
07:00 20.1 16.4 79   22 10 24.1 99.93 25   Mainly Clear
08:00 23.1 16.7 67   22 14 24.1 99.96 28   LegendNANA
09:00 25.5 16.8 58   25 14 24.1 99.94 31   LegendNANA
10:00 27.0 17.9 57   26 13 24.1 99.94 33   Mainly Clear
11:00 27.6 17.9 55   24 12 24.1 99.89 34   LegendNANA
12:00 29.2 17.9 50   23 12 24.1 99.85 35   LegendNANA
13:00 28.9 17.3 49   22 17 24.1 99.80 34   Mostly Cloudy
14:00 29.8 17.2 46   24 16 24.1 99.77 35   LegendNANA
15:00 30.1 18.1 48   29 7 24.1 99.75 36   LegendNANA
16:00 30.4 18.1 47   28 7 24.1 99.70 36   Mostly Cloudy
17:00 30.8 18.1 46   28 8 24.1 99.62 37   LegendNANA
18:00 29.4 17.8 49   20 9 22.5 99.67 35   LegendNANA
19:00 26.6 18.1 59   21 12 24.1 99.71 33   Mostly Cloudy
20:00 23.4 18.4 73   21 14 24.1 99.80 30   Thunderstorms
21:00 21.9 18.4 80   24 8 22.5 99.77 28   LegendNANA
22:00 20.8 18.4 86   20 5 24.1 99.76 27   Mainly Clear
23:00 20.3 18.6 90   22 6 24.1 99.77 27   LegendNANA

Notes on Data Quality.

Legend

  • E = Estimated
  • M = Missing
  • NA = Not Available*
  • [empty] = Indicates an unobserved value
Date modified: